User: anonymous   Login
Location: Unspecified
(0.0000°N, 0.0000°E)
Time: 09:47:44
(UTC+00:00)
Language:

USA 184 - Orbit

View from above orbital plane
View from above orbital plane
View from above satellite
View from above satellite

Ground track
Ground track

The orbit data is extracted from the following two-line orbital elements,

1 29249U 06027A   16037.59721430 0.00000629  00000-0  00000-0 0    09
2 29249  63.8065 344.1498 7136718 267.1088  17.1278  2.00615000    04
Epoch (UTC): 06 February 2016 14:19:59
Eccentricity: 0.7136718
inclination: 63.8065°
perigee height: 1225 km
apogee height: 39129 km
right ascension of ascending node: 344.1498°
argument of perigee: 267.1088°
revolutions per day: 2.00615000
mean anomaly at epoch: 17.1278°
orbit number at epoch: 0

The dashed part of the orbit path shows where the satellite is in the earth's shadow,  

DLR